FlightSource - Aviation Photo Database

World Wide Airport Lookup


Search by ICAO
Or
Search by City

FlightSource.ca - Aviation Photo Database - Whiteside Co Jos H Bittorf Airport Information
Airport Identification
Name: Whiteside Co Jos H Bittorf Airport
ICAO: KSQI
IATA:
Airport Location
City: Sterling/Rockfalls
Region: IL
Country: United States
Continent: North America
Latitude: 41.7428
Longitude: -89.6763
Airport Information
Type: Small Airport
Elevation: 647 Feet ASL
Flight Status: KSQI
More Info: KSQI
Airport Weather    
Metar: KSQI 251456Z AUTO 26020G26KT 10SM CLR M01/M04 A2989 RMK AO2 PK WND 26026/1450 SLPNO T10061044 51035 FZRANO
TAF:


Advertisement